Orbital Elements at Epoch 2459000.5 (2020-May-31.0) TDB
Reference: JPL 30 (heliocentric ecliptic J2000)
Element | Value | Uncertainty (1-sigma) | Units |
e | .1026162209592316 | 3.3493e-08 | |
a | 2.552388080117242 | 9.5768e-09 | au |
q | 2.290471660914222 | 8.6431e-08 | au |
i | 3.236431933793298 | 4.038e-06 | deg |
node | 31.03292317549958 | 7.6234e-05 | deg |
peri | 13.03484793389134 | 8.1798e-05 | deg |
M | 101.5327912454871 | 2.9446e-05 | deg |
tp | 2458580.429374642220 (2019-Apr-06.92937464) | 0.000121 | TDB |
period | 1489.424483201356 4.08 | 8.3827e-06 2.295e-08 | d yr |
n | .2417040971598768 | 1.3603e-09 | deg/d |
Q | 2.814304499320261 | 1.056e-08 | au |
|
| | Orbit Determination Parameters
Additional Information
|